Retour au catalogue

QIANFAN-15

ActifCommunicationsPO
NORAD 60393·PAYLOAD·🇨🇳 China

Lancé Aug 6, 2024 depuis Taiyuan Satellite Launch Center

Loading…

Prochains Passages (prochaines 24 heures)

TLE

FraisSource: Space-Track

Époque: Sep 14, 2026, 20:34 UTC

1 60393U 24140Q   26257.85701208  .00000027  00000-0  23249-4 0  9998
2 60393  88.9662 270.5980 0014403 113.4784 246.7882 13.51027991104542

Suivez QIANFAN-15 en temps réel avec AllMySat

Download on the App Store